Погода в Журавском

Россия / Ставропольский край     44°50′23″N   43°18′08″E
темп.,
°C
ветер,
м/с
пор.,
м/с
влажн.,
%
обл.,
%
осадки,
мм/ч
давл.,
гПа
погр.,
м
14 мая, пт
пт1400:00+14вюв3377100 0.0 101442
03:00+13юв2286100 0.0 101418
06:00+14юв25875 0.0 1014127
09:00+20юв34650 0.0 1013425
12:00+25вюв44520 0.0 1013656
15:00+27вюв55474 0.0 1012863
18:00+25юв24640 0.0 101190
21:00+19в34740 0.0 101238
15 мая, сб
сб1500:00+15в33680 0.0 101245
03:00+13вюв007076 0.0 101211
06:00+16зюз1171100 0.0 101338
09:00+23сз45666 0.0 1013620
12:00+27с44585 0.0 10131169
15:00+28ссв34522 0.0 10121495
18:00+26в225987 0.0 101151
21:00+21ююз1169100 0.0 101211
16 мая, вс
вс1600:00+18в2271100 0.0 101122
03:00+15всв2258100 0.0 101111
06:00+15всв126049 0.0 101164
09:00+21в345464 0.0 1010376
12:00+25в554569 0.0 1009780
15:00+28вюв57405 0.0 10071181
18:00+23в61253100 0.0 1006311
21:00+20в51246100 0.0 1007340
17 мая, пн
пн1700:00+15в39639 0.0 1006181
03:00+14в226245 0.0 100612
06:00+15всв2563100 0.0 1006143
09:00+20в345598 0.0 1006370
12:00+26в45492 0.0 1006784
15:00+28в563959 0.0 10041193
18:00+25св1257100 0.0 100648
21:00+17сз51090100 0.0 1009182
18 мая, вт
вт1800:00+16з469525 0.0 1009118
03:00+15сз5129152 0.0 1009282
06:00+16зсз6138694 0.0 1011540
09:00+20зсз8107098 0.0 1012795
12:00+21сз7963100 0.0 1012977
15:00+24сз6759100 0.0 10121540
18:00+22сз576959 0.1 1012613
21:00+17зсз4108411 0.1 1013234